USA 164 (MILSTAR-2 3) 1 27168U 02001A 21062.61852104 .00000094 00000-0 00000-0 0 9998 2 27168 9.0264 30.8835 0002374 314.0338 58.2794 1.00273173 13599 TITAN 4 CENTAUR R/B 1 27169U 02001B 21062.49413167 .00000062 00000-0 00000-0 0 9992 2 27169 7.4739 36.8230 0051909 85.7825 274.9050 1.00143663 7028